GROUP/SHIP,CRUISE_DESIGNATION,JD_GMT,DATE_DDMMYYYY,TIME_HH:MM:SS,LAT_DEC_DEGREE,LONG_DEC_DEGREE,xCO2W_PPM,xCO2A_PPM,PRES_EQUIL_hPa,PRES_SEALEVEL_hPa,EqTEMP_C,SST(TSG)_C,SAL(TSG)_PERMIL,WATER_FLOW_L/MIN,GAS_FLOW_IR_ML/MIN,TEMP_IR_C,PRES_IR_hPa,SHIP_HEADING_TRUE_DEGREE,SHIP_SPEED_KNOT,WIND_DIR_REL_DEGREE,WIND_SPEED_REL_M/S,fCO2W@SST_uATM,QC_FLAG_WATER,fCO2A_uATM,QC_FLAG_AIR,dfCO2_uATM,FLUORO_uG/L,WIND_SPEED_TRUE_M/S,WIND_DIR_TRUE_DEGREE,AIR_TEMP_C
AOML_Brown,RB200304B,170.559,19062003,13:24:27,64.141,-22.567,196.94,379.99,998.17,998.16,11.22,10.93,34.09,11.14,185.04,25.26,998.17,-9,-9,40.80,9.99,188.36,2,368.49,2,-180.12,0.70,6.56,334.38,-9
AOML_Brown,RB200304B,170.562,19062003,13:29:07,64.137,-22.606,192.01,379.99,998.26,998.27,11.27,10.92,34.12,11.19,185.80,25.85,998.26,-9,-9,37.60,9.79,183.23,2,368.49,2,-185.26,0.70,6.00,334.15,-9
AOML_Brown,RB200304B,170.565,19062003,13:33:27,64.132,-22.643,190.12,379.99,998.33,998.37,10.91,10.68,34.00,11.20,187.60,26.37,998.33,-9,-9,37.10,9.19,182.38,2,368.49,2,-186.10,0.72,5.55,337.50,-9
AOML_Brown,RB200304B,170.568,19062003,13:37:47,64.127,-22.680,190.09,379.99,998.39,998.41,11.19,10.45,34.26,11.12,188.42,26.85,998.39,-9,-9,34.50,9.59,178.40,2,368.49,2,-190.08,0.70,5.48,332.65,-9
AOML_Brown,RB200304B,170.579,19062003,13:54:27,64.112,-22.822,217.70,379.99,998.66,998.71,10.74,10.52,34.07,11.15,181.10,28.50,998.66,-9,-9,28.90,8.79,209.05,2,368.49,2,-159.44,0.71,4.28,344.03,-9
AOML_Brown,RB200304B,170.582,19062003,13:58:47,64.109,-22.859,209.62,379.99,998.55,998.69,10.72,10.29,34.14,11.20,183.98,28.91,998.55,-9,-9,30.50,8.89,199.46,2,368.49,2,-169.03,0.70,4.55,332.41,-9
AOML_Brown,RB200304B,170.586,19062003,14:03:27,64.104,-22.896,213.76,379.99,998.94,998.80,10.40,9.82,34.25,11.09,183.89,29.30,998.94,-9,-9,33.70,8.39,202.25,2,368.49,2,-166.24,0.70,4.66,339.50,-9
AOML_Brown,RB200304B,170.589,19062003,14:07:47,64.098,-22.931,219.88,379.99,998.72,998.79,10.31,10.12,34.20,11.22,184.11,29.68,998.72,-9,-9,30.60,8.49,211.51,2,368.49,2,-156.97,0.70,4.35,333.60,-9
AOML_Brown,RB200304B,170.600,19062003,14:24:27,64.055,-23.010,199.35,375.54,999.04,999.15,10.86,10.45,34.08,11.02,186.74,30.87,999.04,-9,-9,35.20,4.89,189.97,2,364.46,2,-174.49,0.67,4.12,320.46,-9
AOML_Brown,RB200304B,170.604,19062003,14:29:07,64.037,-23.015,210.83,375.54,999.19,999.22,10.46,10.17,33.88,10.95,189.39,31.13,999.19,-9,-9,30.40,4.89,202.01,2,364.46,2,-162.46,0.67,3.72,323.38,-9
AOML_Brown,RB200304B,170.607,19062003,14:33:27,64.021,-23.019,223.43,375.54,999.22,999.26,10.61,10.21,33.90,11.07,189.69,31.37,999.22,-9,-9,36.10,4.39,213.07,2,364.46,2,-151.40,0.66,4.39,326.50,-9
AOML_Brown,RB200304B,170.610,19062003,14:37:47,64.005,-23.023,223.75,375.54,999.34,999.32,10.71,10.32,33.88,11.04,188.73,31.59,999.34,-9,-9,42.90,4.50,213.48,2,364.46,2,-150.98,0.66,4.65,322.11,-9
AOML_Brown,RB200304B,170.621,19062003,14:54:27,63.944,-23.040,223.33,375.54,999.57,999.47,10.77,10.36,33.91,11.07,181.38,32.29,999.57,-9,-9,47.90,5.69,212.92,2,364.46,2,-151.54,0.69,5.29,311.61,-9
AOML_Brown,RB200304B,170.624,19062003,14:58:47,63.928,-23.045,228.73,375.54,999.43,999.47,10.76,10.34,33.94,11.14,184.53,32.45,999.43,-9,-9,58.70,5.69,217.97,2,364.46,2,-146.49,0.67,6.32,312.43,-9
AOML_Brown,RB200304B,170.627,19062003,15:03:27,63.910,-23.051,231.47,375.54,999.44,999.56,10.65,10.35,33.90,10.97,184.41,32.60,999.44,-9,-9,52.60,5.49,221.72,2,364.46,2,-142.75,0.64,5.66,312.18,-9
AOML_Brown,RB200304B,170.630,19062003,15:07:47,63.895,-23.058,233.42,375.54,999.50,999.58,10.73,10.31,33.97,11.03,185.43,32.73,999.50,-9,-9,50.70,5.59,222.43,2,364.46,2,-142.04,0.65,5.38,308.86,-9
AOML_Brown,RB200304B,170.642,19062003,15:24:27,63.833,-23.079,239.93,375.62,999.72,999.78,10.48,10.11,33.96,10.96,188.21,33.22,999.72,-9,-9,57.70,6.59,229.27,2,364.88,2,-135.61,0.64,6.49,299.60,-9
AOML_Brown,RB200304B,170.645,19062003,15:29:07,63.816,-23.083,251.76,375.62,999.97,999.80,10.51,10.02,34.26,11.01,186.96,33.34,999.97,-9,-9,68.10,5.89,239.36,2,364.88,2,-125.52,0.64,7.14,307.45,-9
AOML_Brown,RB200304B,170.648,19062003,15:33:27,63.800,-23.086,265.68,375.62,999.66,999.83,10.31,9.85,34.52,10.98,187.47,33.44,999.66,-9,-9,60.70,6.09,252.93,2,364.88,2,-111.95,0.64,6.60,303.88,-9
AOML_Brown,RB200304B,170.651,19062003,15:37:47,63.784,-23.087,281.08,375.62,999.78,999.92,10.36,9.78,34.85,10.98,188.48,33.53,999.78,-9,-9,56.30,6.09,266.24,2,364.88,2,-98.64,0.64,5.97,300.20,-9
AOML_Brown,RB200304B,170.663,19062003,15:54:27,63.723,-23.089,314.05,375.62,1000.03,1000.17,10.10,9.62,35.04,11.07,182.74,33.48,1000.03,-9,-9,62.50,4.10,298.93,2,364.88,2,-65.95,0.64,6.18,293.02,-9
AOML_Brown,RB200304B,170.666,19062003,15:58:47,63.712,-23.063,317.84,375.62,1000.11,1000.24,10.12,9.69,34.96,11.00,184.86,33.29,1000.11,-9,-9,308.90,1.60,303.12,2,364.88,2,-61.76,0.63,6.02,298.84,-9
AOML_Brown,RB200304B,170.669,19062003,16:03:27,63.705,-23.028,318.80,375.62,1000.16,1000.17,9.90,9.39,35.03,10.87,185.05,33.22,1000.16,-9,-9,288.20,1.60,303.09,2,364.88,2,-61.79,0.63,6.67,302.47,-9
AOML_Brown,RB200304B,170.672,19062003,16:07:47,63.697,-22.995,326.10,375.62,1000.19,1000.24,9.78,9.39,34.99,10.96,184.80,33.24,1000.19,-9,-9,277.40,1.40,311.64,2,364.88,2,-53.24,0.63,7.06,299.84,-9
AOML_Brown,RB200304B,170.684,19062003,16:24:27,63.678,-22.867,317.05,375.74,1000.44,1000.37,10.49,10.12,35.16,10.80,186.69,33.61,1000.44,-9,-9,287.50,2.80,303.22,2,364.98,2,-61.76,0.63,6.52,301.26,-9
AOML_Brown,RB200304B,170.687,19062003,16:29:07,63.675,-22.829,314.09,375.74,1000.35,1000.34,10.51,10.17,35.15,10.82,189.31,33.62,1000.35,-9,-9,298.40,2.80,300.65,2,364.98,2,-64.33,0.63,6.18,300.29,-9
AOML_Brown,RB200304B,170.690,19062003,16:33:27,63.672,-22.793,311.98,375.74,1000.17,1000.31,10.56,10.07,35.20,10.75,187.32,33.44,1000.17,-9,-9,293.40,2.60,296.76,2,364.98,2,-68.22,0.63,6.03,299.00,-9
AOML_Brown,RB200304B,170.693,19062003,16:37:47,63.669,-22.759,311.48,375.74,1000.23,1000.29,10.49,10.12,35.14,10.78,186.52,33.27,1000.23,-9,-9,274.90,2.50,297.83,2,364.98,2,-67.15,0.63,7.13,297.51,-9
AOML_Brown,RB200304B,170.704,19062003,16:54:27,63.658,-22.625,315.43,375.74,1000.24,1000.33,10.58,10.21,35.14,10.81,184.57,33.47,1000.24,-9,-9,271.70,1.50,301.61,2,364.98,2,-63.37,0.63,6.86,290.20,-9
AOML_Brown,RB200304B,170.707,19062003,16:58:47,63.654,-22.591,315.37,375.74,1000.03,1000.32,10.55,10.14,35.15,11.00,183.81,33.58,1000.03,-9,-9,240.40,1.70,300.92,2,364.98,2,-64.06,0.63,7.47,293.30,-9
AOML_Brown,RB200304B,170.711,19062003,17:03:27,63.650,-22.554,315.22,375.74,1000.13,1000.26,10.54,10.17,35.14,10.93,184.37,33.63,1000.13,-9,-9,233.60,2.29,301.29,2,364.98,2,-63.69,0.63,8.31,293.64,-9
AOML_Brown,RB200304B,170.714,19062003,17:07:47,63.646,-22.520,315.31,375.74,1000.04,1000.22,10.54,10.13,35.15,10.97,181.23,33.46,1000.04,-9,-9,220.50,1.50,300.90,2,364.98,2,-64.08,0.63,7.78,289.07,-9
AOML_Brown,RB200304B,170.725,19062003,17:24:27,63.630,-22.389,298.45,375.65,1000.24,1000.28,10.60,10.20,35.07,10.90,186.05,33.36,1000.24,-9,-9,253.30,2.99,284.91,2,364.91,2,-79.99,0.62,8.17,303.45,-9
AOML_Brown,RB200304B,170.729,19062003,17:29:07,63.625,-22.353,288.48,375.65,1000.52,1000.31,10.60,10.16,35.04,10.77,184.81,33.46,1000.52,-9,-9,250.50,2.80,275.09,2,364.91,2,-89.82,0.62,8.11,303.17,-9
AOML_Brown,RB200304B,170.732,19062003,17:33:27,63.620,-22.319,283.41,375.65,1000.18,1000.35,10.53,10.12,35.08,10.96,186.90,33.57,1000.18,-9,-9,225.90,2.90,270.50,2,364.91,2,-94.41,0.62,9.15,295.14,-9
AOML_Brown,RB200304B,170.735,19062003,17:37:47,63.616,-22.285,283.45,375.65,1000.25,1000.41,10.53,10.09,35.07,10.93,187.21,33.66,1000.25,-9,-9,274.00,2.00,270.12,2,364.91,2,-94.79,0.62,6.99,299.04,-9
AOML_Brown,RB200304B,170.746,19062003,17:54:27,63.613,-22.244,274.15,375.65,1000.37,1000.33,10.58,10.17,35.07,10.90,183.14,33.33,1000.37,-9,-9,6.30,5.79,261.67,2,364.91,2,-103.24,0.61,5.48,302.35,-9
AOML_Brown,RB200304B,170.749,19062003,17:58:47,63.613,-22.244,272.60,375.65,1000.41,1000.47,10.60,10.15,35.09,11.04,185.44,33.40,1000.41,-9,-9,9.10,6.99,259.77,2,364.91,2,-105.13,0.62,6.79,303.67,-9
AOML_Brown,RB200304B,170.752,19062003,18:03:27,63.613,-22.245,273.09,375.65,1000.47,1000.45,10.65,10.16,35.08,11.07,184.63,33.50,1000.47,-9,-9,13.40,6.39,259.81,2,364.91,2,-105.09,0.62,6.10,311.52,-9
AOML_Brown,RB200304B,170.755,19062003,18:07:47,63.613,-22.245,273.21,375.65,1000.77,1000.57,10.57,10.14,35.09,10.86,184.19,33.58,1000.77,-9,-9,11.90,6.59,260.62,2,364.91,2,-104.29,0.62,6.44,306.48,-9
AOML_Brown,RB200304B,170.767,19062003,18:24:28,63.612,-22.247,270.11,376.08,1000.43,1000.79,10.65,10.19,35.07,10.94,185.55,33.36,1000.43,-9,-9,19.90,6.99,257.23,2,365.65,2,-108.43,0.61,6.80,313.69,-9
AOML_Brown,RB200304B,170.770,19062003,18:29:08,63.612,-22.247,269.75,376.08,1000.81,1000.79,10.64,10.20,35.07,11.01,187.38,33.47,1000.81,-9,-9,7.30,6.79,257.27,2,365.65,2,-108.38,0.62,6.79,301.60,-9
AOML_Brown,RB200304B,170.773,19062003,18:33:28,63.612,-22.247,269.01,376.08,1000.76,1000.85,10.60,10.20,35.08,10.84,188.27,33.60,1000.76,-9,-9,11.10,6.99,256.96,2,365.65,2,-108.70,0.62,6.69,304.41,-9
AOML_Brown,RB200304B,170.776,19062003,18:37:48,63.612,-22.247,268.83,376.08,1000.77,1000.92,10.63,10.20,35.07,10.82,187.43,33.53,1000.77,-9,-9,14.40,6.99,256.43,2,365.65,2,-109.22,0.62,6.84,309.02,-9
AOML_Brown,RB200304B,170.788,19062003,18:54:28,63.612,-22.247,266.96,376.08,1001.13,1001.12,10.63,10.21,35.07,10.79,184.14,33.48,1001.13,-9,-9,19.10,8.59,254.85,2,365.65,2,-110.81,0.62,8.35,313.68,-9
AOML_Brown,RB200304B,170.791,19062003,18:59:08,63.612,-22.247,266.70,376.08,1001.17,1001.36,10.63,10.20,35.07,10.83,183.91,33.61,1001.17,-9,-9,17.50,7.59,254.58,2,365.65,2,-111.08,0.62,7.34,312.80,-9
AOML_Brown,RB200304B,170.794,19062003,19:03:28,63.612,-22.247,266.48,376.08,1001.34,1001.13,10.63,10.20,35.07,10.86,185.10,33.76,1001.34,-9,-9,23.80,7.89,254.41,2,365.65,2,-111.25,0.63,7.56,318.70,-9
AOML_Brown,RB200304B,170.797,19062003,19:07:48,63.612,-22.247,266.28,376.08,1001.66,1001.46,10.65,10.20,35.07,10.87,183.83,33.89,1001.66,-9,-9,13.00,8.09,254.05,2,365.65,2,-111.61,0.62,7.89,308.34,-9
AOML_Brown,RB200304B,170.809,19062003,19:24:28,63.612,-22.247,265.63,375.68,1001.53,1001.58,10.68,10.18,35.07,10.88,186.53,34.18,1001.53,-9,-9,13.70,7.89,252.81,2,365.48,2,-112.67,0.62,7.89,309.20,-9
AOML_Brown,RB200304B,170.812,19062003,19:29:08,63.613,-22.245,265.73,375.68,1001.70,1001.76,10.59,10.18,35.07,10.92,185.97,34.17,1001.70,-9,-9,206.30,4.80,253.91,2,365.48,2,-111.57,0.63,7.09,303.03,-9
AOML_Brown,RB200304B,170.815,19062003,19:33:28,63.610,-22.228,266.01,375.68,1001.64,1001.78,10.65,10.18,35.08,10.86,188.12,34.14,1001.64,-9,-9,239.80,3.10,253.59,2,365.48,2,-111.88,0.62,6.59,305.23,-9
AOML_Brown,RB200304B,170.818,19062003,19:37:48,63.606,-22.202,271.00,375.68,1001.88,1001.98,10.60,10.25,35.09,10.91,186.07,34.10,1001.88,-9,-9,260.70,2.80,259.70,2,365.48,2,-105.78,0.63,6.71,308.52,-9
AOML_Brown,RB200304B,170.829,19062003,19:54:28,63.591,-22.076,317.28,375.68,1002.11,1001.89,10.73,10.31,35.14,10.85,186.34,34.08,1002.11,-9,-9,314.50,3.60,303.25,2,365.48,2,-62.22,0.63,4.68,312.56,-9
AOML_Brown,RB200304B,170.833,19062003,19:59:08,63.586,-22.040,321.56,375.68,1001.71,1001.89,10.74,10.32,35.14,10.98,184.44,34.07,1001.71,-9,-9,300.50,3.69,307.22,2,365.48,2,-58.25,0.62,5.86,317.12,-9
AOML_Brown,RB200304B,170.836,19062003,20:03:28,63.581,-22.007,324.72,375.68,1001.90,1001.86,10.77,10.26,35.14,10.98,183.59,34.06,1001.90,-9,-9,275.10,4.69,309.09,2,365.48,2,-56.38,0.63,7.90,319.05,-9
AOML_Brown,RB200304B,170.839,19062003,20:07:48,63.577,-21.974,327.97,375.68,1001.84,1002.05,10.58,10.09,35.15,10.88,183.34,34.06,1001.84,-9,-9,281.10,4.59,312.42,2,365.48,2,-53.06,0.63,7.43,317.25,-9
AOML_Brown,RB200304B,170.850,19062003,20:24:28,63.561,-21.846,339.16,376.08,1002.34,1002.05,10.55,10.09,35.11,10.88,186.56,34.12,1002.34,-9,-9,289.60,4.19,323.71,2,366.00,2,-42.29,0.62,6.51,320.03,-9
AOML_Brown,RB200304B,170.854,19062003,20:29:08,63.556,-21.811,338.93,376.08,1002.12,1002.26,10.52,10.11,35.11,10.73,186.83,34.12,1002.12,-9,-9,282.00,4.59,324.14,2,366.00,2,-41.86,0.62,7.04,322.84,-9
AOML_Brown,RB200304B,170.857,19062003,20:33:28,63.552,-21.778,340.53,376.08,1002.03,1002.18,10.51,10.07,35.12,10.84,189.33,34.11,1002.03,-9,-9,262.20,5.59,325.17,2,366.00,2,-40.83,0.62,9.28,317.25,-9
AOML_Brown,RB200304B,170.860,19062003,20:38:08,63.548,-21.742,341.26,376.08,1002.11,1002.20,10.46,10.00,35.11,10.74,186.45,34.10,1002.11,-9,-9,258.60,5.89,325.74,2,366.00,2,-40.26,0.62,9.75,317.93,-9
AOML_Brown,RB200304B,170.871,19062003,20:54:28,63.532,-21.615,340.21,376.08,1002.17,1002.26,10.44,9.96,35.07,10.86,184.01,34.13,1002.17,-9,-9,274.80,3.89,324.40,2,366.00,2,-41.59,0.62,7.37,312.80,-9
AOML_Brown,RB200304B,170.874,19062003,20:59:08,63.528,-21.579,332.27,376.08,1002.17,1002.18,10.39,9.97,35.04,10.73,184.88,34.13,1002.17,-9,-9,271.60,3.40,317.61,2,366.00,2,-48.39,0.62,7.41,308.44,-9
AOML_Brown,RB200304B,170.877,19062003,21:03:28,63.523,-21.546,320.46,376.08,1002.39,1002.37,10.44,10.01,35.03,10.89,184.48,34.12,1002.39,-9,-9,285.00,2.80,306.32,2,366.00,2,-59.68,0.62,5.93,308.55,-9
AOML_Brown,RB200304B,170.881,19062003,21:08:08,63.519,-21.510,315.36,376.08,1002.22,1002.29,10.42,9.95,35.05,10.72,183.84,34.11,1002.22,-9,-9,276.40,3.60,300.90,2,366.00,2,-65.10,0.62,7.05,313.54,-9
AOML_Brown,RB200304B,170.892,19062003,21:24:28,63.503,-21.384,330.72,376.86,1002.25,1002.29,10.29,9.78,35.03,10.74,187.98,34.12,1002.25,-9,-9,302.40,6.09,314.97,2,366.98,2,-52.01,0.62,6.10,340.95,-9
AOML_Brown,RB200304B,170.895,19062003,21:29:08,63.498,-21.348,331.30,376.86,1002.24,1002.38,10.30,9.93,35.02,10.83,187.26,34.12,1002.24,-9,-9,304.70,5.69,317.38,2,366.98,2,-49.60,0.62,5.81,336.30,-9
AOML_Brown,RB200304B,170.898,19062003,21:33:28,63.494,-21.315,332.44,376.86,1002.39,1002.40,10.30,9.70,35.00,10.70,185.80,34.10,1002.39,-9,-9,290.80,4.59,315.50,2,366.98,2,-51.48,0.62,6.52,323.22,-9
AOML_Brown,RB200304B,170.901,19062003,21:38:08,63.490,-21.279,328.76,376.86,1002.45,1002.54,10.15,9.74,34.99,10.84,187.65,34.08,1002.45,-9,-9,311.90,4.30,314.56,2,366.98,2,-52.42,0.62,4.90,324.01,-9
AOML_Brown,RB200304B,170.913,19062003,21:54:28,63.474,-21.155,316.19,376.86,1002.51,1002.75,10.39,10.11,34.94,10.85,184.06,34.09,1002.51,-9,-9,295.90,4.80,304.14,2,366.98,2,-62.84,0.61,6.23,325.84,-9
AOML_Brown,RB200304B,170.916,19062003,21:59:08,63.469,-21.119,297.42,376.86,1002.39,1002.47,10.59,10.19,34.96,10.80,183.15,34.08,1002.39,-9,-9,312.80,4.30,284.62,2,366.98,2,-82.36,0.61,4.95,321.92,-9
AOML_Brown,RB200304B,170.919,19062003,22:03:28,63.465,-21.086,292.41,376.86,1002.52,1002.34,10.54,10.11,35.01,10.59,184.42,34.07,1002.52,-9,-9,281.60,4.59,279.45,2,366.98,2,-87.53,0.62,7.35,320.83,-9
AOML_Brown,RB200304B,170.922,19062003,22:08:08,63.460,-21.049,310.50,376.86,1002.56,1002.41,10.44,9.96,35.05,10.67,184.44,34.06,1002.56,-9,-9,292.50,4.10,296.21,2,366.98,2,-70.77,0.61,6.41,317.68,-9
AOML_Brown,RB200304B,170.934,19062003,22:24:28,63.444,-20.923,305.04,377.10,1002.65,1002.70,10.42,9.98,34.94,10.71,188.56,34.08,1002.65,-9,-9,294.90,4.89,291.48,2,367.31,2,-75.84,0.61,6.41,327.60,-9
AOML_Brown,RB200304B,170.937,19062003,22:29:08,63.439,-20.887,301.06,377.10,1002.68,1002.79,10.44,9.87,34.95,10.75,186.92,34.08,1002.68,-9,-9,282.80,6.69,286.14,2,367.31,2,-81.17,0.61,8.31,332.10,-9
AOML_Brown,RB200304B,170.940,19062003,22:33:28,63.435,-20.853,303.50,377.10,1002.66,1002.67,10.20,9.77,34.88,10.69,190.08,34.06,1002.66,-9,-9,285.80,7.59,290.22,2,367.31,2,-77.09,0.61,8.94,336.72,-9
AOML_Brown,RB200304B,170.943,19062003,22:38:08,63.431,-20.817,308.45,377.10,1002.63,1002.96,10.24,9.87,34.97,10.85,187.86,34.05,1002.63,-9,-9,282.20,7.89,295.68,2,367.31,2,-71.63,0.61,9.15,338.18,-9
AOML_Brown,RB200304B,170.954,19062003,22:54:28,63.415,-20.692,338.95,377.10,1002.72,1002.78,10.17,9.65,35.01,10.66,183.90,34.08,1002.72,-9,-9,284.00,6.19,322.85,2,367.31,2,-44.47,0.61,7.84,331.24,-9
AOML_Brown,RB200304B,170.958,19062003,22:59:08,63.410,-20.656,340.81,377.10,1002.63,1002.80,10.10,9.62,35.03,10.67,185.16,34.07,1002.63,-9,-9,262.00,7.39,325.19,2,367.31,2,-42.12,0.61,10.52,323.85,-9
AOML_Brown,RB200304B,170.961,19062003,23:03:28,63.406,-20.622,342.30,377.10,1002.56,1002.89,10.12,9.77,35.02,10.75,186.83,34.06,1002.56,-9,-9,269.00,7.69,328.38,2,367.31,2,-38.94,0.61,10.15,329.39,-9
AOML_Brown,RB200304B,170.964,19062003,23:08:08,63.402,-20.586,343.20,377.10,1002.62,1002.70,10.17,9.68,35.04,10.69,184.03,34.04,1002.62,-9,-9,259.10,7.79,327.31,2,367.31,2,-40.01,0.61,11.15,323.72,-9
AOML_Brown,RB200304B,170.975,19062003,23:24:28,63.385,-20.459,347.19,377.34,1002.74,1002.77,9.98,9.46,35.03,10.72,187.58,34.06,1002.74,-9,-9,252.00,6.79,330.87,2,367.69,2,-36.82,0.61,10.95,319.86,-9
AOML_Brown,RB200304B,170.979,19062003,23:29:08,63.380,-20.423,345.24,377.34,1002.82,1003.09,9.91,9.45,34.97,10.72,187.72,34.06,1002.82,-9,-9,263.80,6.29,329.81,2,367.69,2,-37.88,0.61,9.63,326.13,-9
AOML_Brown,RB200304B,170.982,19062003,23:33:28,63.376,-20.390,344.01,377.34,1003.24,1002.87,9.89,9.45,34.95,10.80,186.19,34.05,1003.24,-9,-9,274.20,5.29,329.14,2,367.69,2,-38.55,0.61,8.14,322.53,-9
AOML_Brown,RB200304B,170.985,19062003,23:38:08,63.371,-20.354,344.59,377.34,1002.85,1002.94,9.90,9.44,34.95,10.73,187.63,34.05,1002.85,-9,-9,286.10,5.79,329.17,2,367.69,2,-38.52,0.61,7.47,330.89,-9
AOML_Brown,RB200304B,170.996,19062003,23:54:28,63.355,-20.228,332.21,377.34,1003.05,1002.99,10.16,9.76,34.66,10.61,183.45,34.09,1003.05,-9,-9,267.00,6.69,318.20,2,367.69,2,-49.49,0.62,9.74,322.41,-9
AOML_Brown,RB200304B,170.999,19062003,23:59:08,63.343,-20.214,331.30,377.34,1002.96,1002.92,10.24,9.78,34.99,10.62,184.15,34.08,1002.96,-9,-9,119.10,2.20,316.44,2,367.69,2,-51.25,0.62,8.09,348.68,-9
AOML_Brown,RB200304B,171.002,20062003,00:03:28,63.327,-20.217,334.01,377.34,1003.06,1003.07,10.23,9.82,35.10,10.66,184.15,34.06,1003.06,-9,-9,118.40,5.99,319.76,2,367.69,2,-47.93,0.61,8.90,318.40,-9
AOML_Brown,RB200304B,171.006,20062003,00:08:08,63.310,-20.220,336.31,377.34,1003.03,1002.89,10.29,9.87,35.14,10.53,182.15,34.05,1003.03,-9,-9,83.90,4.50,321.89,2,367.69,2,-45.81,0.61,7.70,325.57,-9
AOML_Brown,RB200304B,171.017,20062003,00:24:28,63.270,-20.159,334.60,377.72,1003.27,1003.12,10.37,9.94,35.16,10.65,187.07,34.09,1003.27,-9,-9,246.70,5.29,320.15,2,367.99,2,-47.83,0.61,9.46,312.53,-9
AOML_Brown,RB200304B,171.020,20062003,00:29:08,63.264,-20.126,335.96,377.72,1003.09,1003.18,10.34,9.92,35.17,10.88,187.05,34.09,1003.09,-9,-9,235.20,6.49,321.52,2,367.99,2,-46.46,0.62,11.50,313.52,-9
AOML_Brown,RB200304B,171.023,20062003,00:33:28,63.261,-20.093,337.13,377.72,1003.25,1003.05,10.42,9.96,35.17,10.76,187.48,34.07,1003.25,-9,-9,266.60,9.49,322.09,2,367.99,2,-45.89,0.62,11.80,314.55,-9
AOML_Brown,RB200304B,171.026,20062003,00:37:48,63.265,-20.061,336.90,377.72,1002.90,1003.10,10.42,10.01,35.17,10.67,188.43,34.05,1002.90,-9,-9,289.00,11.48,322.50,2,367.99,2,-45.48,0.63,11.23,309.31,-9
AOML_Brown,RB200304B,171.038,20062003,00:54:28,63.293,-20.005,336.37,377.72,1003.06,1003.13,10.37,9.92,35.17,11.09,184.61,34.06,1003.06,-9,-9,330.90,9.59,321.40,2,367.99,2,-46.58,0.62,9.32,316.18,-9
AOML_Brown,RB200304B,171.041,20062003,00:59:08,63.293,-20.003,336.35,377.72,1002.95,1003.03,10.38,9.91,35.17,10.76,184.63,34.06,1002.95,-9,-9,359.20,9.19,321.14,2,367.99,2,-46.84,0.62,8.78,319.26,-9
AOML_Brown,RB200304B,171.044,20062003,01:03:28,63.293,-20.003,336.32,377.72,1003.45,1003.20,10.35,9.89,35.17,10.82,182.91,34.06,1003.45,-9,-9,23.60,8.69,321.43,2,367.99,2,-46.56,0.62,8.69,331.40,-9
AOML_Brown,RB200304B,171.047,20062003,01:08:08,63.293,-20.003,336.22,377.72,1003.01,1003.29,10.33,9.92,35.16,10.76,184.14,34.05,1003.01,-9,-9,20.40,9.89,321.89,2,367.99,2,-46.09,0.62,9.73,324.95,-9
AOML_Brown,RB200304B,171.059,20062003,01:24:28,63.293,-20.003,336.28,378.48,1003.20,1003.07,10.34,9.91,35.16,10.95,187.04,34.08,1003.20,-9,-9,359.70,10.59,321.75,2,368.91,2,-47.16,0.63,10.28,325.60,-9
AOML_Brown,RB200304B,171.062,20062003,01:29:08,63.293,-20.003,336.32,378.48,1003.30,1003.21,10.33,9.91,35.16,10.98,187.77,34.06,1003.30,-9,-9,12.10,11.29,321.87,2,368.91,2,-47.05,0.62,11.29,334.00,-9
AOML_Brown,RB200304B,171.065,20062003,01:33:28,63.293,-20.003,336.28,378.48,1003.41,1003.26,10.35,9.91,35.16,10.95,187.23,34.05,1003.41,-9,-9,13.50,12.29,321.68,2,368.91,2,-47.23,0.62,12.19,337.06,-9
AOML_Brown,RB200304B,171.068,20062003,01:38:08,63.293,-20.003,336.28,378.48,1003.57,1003.36,10.35,9.91,35.16,11.04,188.20,34.03,1003.57,-9,-9,14.50,11.68,321.75,2,368.91,2,-47.16,0.63,11.33,335.86,-9
AOML_Brown,RB200304B,171.079,20062003,01:54:28,63.286,-20.007,336.34,378.48,1003.55,1003.60,10.38,9.89,35.16,11.06,183.48,34.07,1003.55,-9,-9,121.80,5.99,321.12,2,368.91,2,-47.80,0.62,9.18,329.29,-9
AOML_Brown,RB200304B,171.083,20062003,01:59:08,63.275,-20.008,336.73,378.48,1004.09,1003.69,10.30,9.87,35.17,10.82,184.56,34.06,1004.09,-9,-9,140.00,1.80,322.40,2,368.91,2,-46.52,0.62,6.17,342.81,-9
AOML_Brown,RB200304B,171.086,20062003,02:03:28,63.264,-20.007,337.39,378.48,1003.90,1003.82,10.32,9.88,35.17,10.82,185.12,34.05,1003.90,-9,-9,107.80,2.80,322.82,2,368.91,2,-46.09,0.62,5.92,324.92,-9
AOML_Brown,RB200304B,171.089,20062003,02:08:08,63.253,-20.005,338.13,378.48,1004.16,1003.81,10.33,9.89,35.17,10.88,184.23,34.05,1004.16,-9,-9,125.00,3.69,323.64,2,368.91,2,-45.28,0.63,7.49,327.27,-9
AOML_Brown,RB200304B,171.100,20062003,02:24:28,63.213,-20.000,342.70,378.92,1004.25,1003.81,10.21,9.74,35.16,10.72,188.12,34.07,1004.25,-9,-9,131.80,6.89,327.73,2,369.64,2,-41.91,0.62,9.02,315.42,-9
AOML_Brown,RB200304B,171.104,20062003,02:29:08,63.213,-19.996,343.15,378.92,1003.78,1003.72,10.21,9.75,35.16,10.77,188.17,34.06,1003.78,-9,-9,6.20,10.28,328.15,2,369.64,2,-41.50,0.62,9.67,320.10,-9
AOML_Brown,RB200304B,171.107,20062003,02:33:28,63.214,-19.997,343.53,378.92,1003.83,1003.88,10.18,9.74,35.16,10.62,187.60,34.05,1003.83,-9,-9,345.70,9.19,328.76,2,369.64,2,-40.88,0.63,8.89,314.11,-9
AOML_Brown,RB200304B,171.110,20062003,02:38:08,63.214,-19.995,343.43,378.92,1003.93,1003.91,10.18,9.74,35.16,10.90,188.89,34.04,1003.93,-9,-9,359.10,8.79,328.67,2,369.64,2,-40.97,0.61,8.38,304.89,-9
AOML_Brown,RB200304B,171.121,20062003,02:54:28,63.214,-19.994,343.55,378.92,1004.02,1004.41,10.26,9.73,35.16,10.97,184.52,34.07,1004.02,-9,-9,32.00,9.59,327.61,2,369.64,2,-42.03,0.62,9.15,313.82,-9
AOML_Brown,RB200304B,171.124,20062003,02:59:08,63.214,-19.994,343.68,378.92,1004.42,1004.14,10.18,9.74,35.16,10.65,184.64,34.07,1004.42,-9,-9,25.20,9.49,329.14,2,369.64,2,-40.50,0.62,9.02,320.49,-9
AOML_Brown,RB200304B,171.127,20062003,03:03:28,63.214,-19.994,343.66,378.92,1004.40,1003.93,10.18,9.74,35.16,10.85,185.85,34.05,1004.40,-9,-9,25.90,8.59,329.06,2,369.64,2,-40.59,0.62,8.31,322.63,-9
AOML_Brown,RB200304B,171.131,20062003,03:08:08,63.214,-19.994,343.51,378.92,1004.10,1004.49,10.22,9.73,35.16,10.78,183.87,34.03,1004.10,-9,-9,25.70,9.59,328.17,2,369.64,2,-41.47,0.62,9.13,323.60,-9
AOML_Brown,RB200304B,171.142,20062003,03:24:28,63.214,-19.994,343.39,379.31,1004.52,1004.60,10.18,9.73,35.16,10.84,189.34,34.07,1004.52,-9,-9,21.70,9.29,328.69,2,370.28,2,-41.59,0.62,9.29,319.70,-9
AOML_Brown,RB200304B,171.145,20062003,03:29:08,63.214,-19.994,343.44,379.31,1004.62,1004.62,10.17,9.72,35.16,11.19,188.55,34.08,1004.62,-9,-9,4.70,8.19,328.73,2,370.28,2,-41.54,0.62,7.83,304.32,-9
AOML_Brown,RB200304B,171.148,20062003,03:33:28,63.214,-19.994,343.41,379.31,1004.63,1004.69,10.17,9.72,35.16,10.86,188.86,34.07,1004.63,-9,-9,24.60,8.69,328.78,2,370.28,2,-41.50,0.62,8.41,323.28,-9
AOML_Brown,RB200304B,171.151,20062003,03:38:08,63.214,-19.994,343.44,379.31,1004.76,1004.75,10.15,9.71,35.16,11.00,190.23,34.05,1004.76,-9,-9,14.70,8.09,329.00,2,370.28,2,-41.28,0.62,8.09,313.30,-9
AOML_Brown,RB200304B,171.163,20062003,03:54:28,63.214,-19.994,343.27,379.31,1004.68,1004.84,10.14,9.71,35.16,10.93,183.18,34.05,1004.68,-9,-9,18.90,9.99,328.86,2,370.28,2,-41.42,0.62,9.84,314.79,-9